User: anonymous   Login
Location: Buchloe
(48.0161°N, 10.7316°E)
Time: 11:27:16
(UTC+02:00)
Language:

ISS - Orbit

View from above orbital plane
View from above orbital plane
View from above satellite
View from above satellite

Ground track
Ground track

The orbit data is extracted from the following two-line orbital elements,

1 25544U 98067A   22273.23101605  .00014747  00000-0  26205-3 0  9995
2 25544  51.6446 176.1537 0002614 314.6225 182.4815 15.50413063361472
Epoch (UTC): 30 September 2022 05:32:39
Eccentricity: 0.0002614
inclination: 51.6446°
perigee height: 414 km
apogee height: 417 km
right ascension of ascending node: 176.1537°
argument of perigee: 314.6225°
revolutions per day: 15.50413063
mean anomaly at epoch: 182.4815°
orbit number at epoch: 36147

The dashed part of the orbit path shows where the satellite is in the earth's shadow,  

DLR